This is the latest recevied weather packets stored in our database for station/object BRIVER. If no packets are shown the sender has not sent any weather packets the latest 10 day(s).
| Time | Temp. | Humidity | Pressure | Rain* | Wind** | Luminosity | Snow |
|---|---|---|---|---|---|---|---|
| 1778101648 | 15.56° C | 76% | 1018.3 hPa | 0 mm | - | - | - |
| 1778101527 | 15° C | 76% | 1018.2 hPa | 0 mm | - | - | - |
| 1778101228 | 15° C | 74% | 1018.3 hPa | 0 mm | - | - | - |
| 1778101109 | 15° C | 75% | 1018.2 hPa | 0 mm | - | - | - |
| 1778100927 | 15° C | 74% | 1018.4 hPa | 0 mm | - | - | - |
| 1778100627 | 15° C | 72% | 1018.3 hPa | 0 mm | - | - | - |
| 1778100568 | 15° C | 72% | 1018.4 hPa | 0 mm | - | - | - |
| 1778100327 | 15° C | 70% | 1018.3 hPa | 0 mm | - | - | - |
| 1778100027 | 15° C | 71% | 1018.3 hPa | 0 mm | - | - | - |
| 1778099727 | 15.56° C | 70% | 1018.3 hPa | 0 mm | - | - | - |
| 1778099488 | 15° C | 69% | 1018.1 hPa | 0 mm | - | - | - |
| 1778099428 | 15° C | 70% | 1018.2 hPa | 0 mm | - | - | - |
| 1778099127 | 15.56° C | 69% | 1018.3 hPa | 0 mm | - | - | - |
| 1778098948 | 15.56° C | 68% | 1018.3 hPa | 0 mm | - | - | - |
| 1778098827 | 15.56° C | 67% | 1018.2 hPa | 0 mm | - | - | - |
| 1778098527 | 16.11° C | 65% | 1018.2 hPa | 0 mm | - | - | - |
| 1778098408 | 15.56° C | 67% | 1018.1 hPa | 0 mm | - | - | - |
| 1778098227 | 15.56° C | 68% | 1018.1 hPa | 0 mm | - | - | - |
| 1778097927 | 15.56° C | 66% | 1018.1 hPa | 0 mm | - | - | - |
| 1778097871 | 15.56° C | 67% | 1018.2 hPa | 0 mm | - | - | - |
| 1778097627 | 15.56° C | 68% | 1018.3 hPa | 0 mm | - | - | - |
| 1778097327 | 17.22° C | 64% | 1018.4 hPa | 0 mm | - | - | - |
| 1778097028 | 17.78° C | 67% | 1018.3 hPa | 0 mm | - | - | - |
| 1778096789 | 17.22° C | 67% | 1018.2 hPa | 0 mm | - | - | - |
| 1778096728 | 17.22° C | 67% | 1018.2 hPa | 0 mm | - | - | - |
* Rain latest hour (hover to see other rain measurements)
** Current wind speed in m/s (hover to see current wind gust speed)